This is the latest recevied weather packets stored in our database for station/object IZ1UQG-N2. If no packets are shown the sender has not sent any weather packets the latest 10 day(s).
| Time | Temp. | Humidity | Pressure | Rain* | Wind** | Luminosity | Snow |
|---|---|---|---|---|---|---|---|
| 1787617840 | 17.78° C | 92% | 1010.8 hPa | 11.43 mm | - | 0 W/m² | - |
| 1787617780 | 17.78° C | 92% | 1010.7 hPa | 11.18 mm | - | 0 W/m² | - |
| 1787617722 | 17.78° C | 92% | 1010.6 hPa | 11.18 mm | - | 0 W/m² | - |
| 1787617662 | 17.78° C | 92% | 1010.4 hPa | 11.18 mm | - | 0 W/m² | - |
| 1787617601 | 17.78° C | 92% | 1010.5 hPa | 11.18 mm | - | 0 W/m² | - |
| 1787617541 | 17.78° C | 92% | 1010.6 hPa | 11.18 mm | - | 0 W/m² | - |
| 1787617481 | 17.78° C | 92% | 1010.5 hPa | 11.18 mm | - | 0 W/m² | - |
| 1787617420 | 17.78° C | 92% | 1010.7 hPa | 10.92 mm | - | 0 W/m² | - |
| 1787617360 | 17.78° C | 92% | 1010.6 hPa | 10.92 mm | - | 0 W/m² | - |
| 1787617300 | 17.78° C | 92% | 1010.7 hPa | 11.18 mm | - | 0 W/m² | - |
| 1787617240 | 17.78° C | 92% | 1010.5 hPa | 10.92 mm | - | 0 W/m² | - |
| 1787617182 | 17.78° C | 92% | 1010.6 hPa | 10.92 mm | - | 0 W/m² | - |
| 1787617121 | 17.78° C | 92% | 1010.7 hPa | 10.92 mm | - | 0 W/m² | - |
| 1787617061 | 17.78° C | 92% | 1010.8 hPa | 10.92 mm | - | 0 W/m² | - |
| 1787617001 | 17.78° C | 92% | 1011 hPa | 10.67 mm | - | 0 W/m² | - |
| 1787616972 | 17.78° C | 92% | 1011.1 hPa | 10.67 mm | - | 0 W/m² | - |
| 1787616881 | 17.78° C | 92% | 1011.2 hPa | 10.92 mm | - | 0 W/m² | - |
| 1787616820 | 17.78° C | 92% | 1011.2 hPa | 11.18 mm | - | 0 W/m² | - |
| 1787616760 | 17.78° C | 92% | 1011.2 hPa | 11.18 mm | - | 0 W/m² | - |
| 1787616700 | 17.78° C | 92% | 1011 hPa | 11.68 mm | - | 0 W/m² | - |
| 1787616640 | 17.78° C | 92% | 1010.9 hPa | 11.68 mm | - | 0 W/m² | - |
| 1787616582 | 17.78° C | 92% | 1010.8 hPa | 12.19 mm | - | 0 W/m² | - |
| 1787616521 | 17.78° C | 92% | 1010.7 hPa | 13.46 mm | - | 0 W/m² | - |
| 1787616461 | 17.78° C | 92% | 1010.7 hPa | 13.46 mm | - | 0 W/m² | - |
| 1787616401 | 17.78° C | 92% | 1010.8 hPa | 14.48 mm | - | 0 W/m² | - |
* Rain latest hour (hover to see other rain measurements)
** Current wind speed in m/s (hover to see current wind gust speed)